Location: Nederland
(52.1000°N, 5.2000°E)
Time: 09:12:58
(UTC+01:00)

FENGYUN 1C DEB - Visible Passes

Search period start: 29 January 2022 00:00
Search period end: 08 February 2022 00:00
Orbit: 736 x 836 km, 99.0° (Epoch: 28 January)

Date Brightness Start Highest point End Pass type
(mag) Time Alt. Az. Time Alt. Az. Time Alt. Az.
29 Jan ? 07:23:56 10° ENE 07:26:31 14° NE 07:29:07 10° NNE visible
01 Feb ? 07:30:49 10° E 07:33:48 15° NE 07:36:49 10° NNE visible
04 Feb ? 07:37:47 10° E 07:41:06 17° NE 07:44:27 10° NNE visible
05 Feb ? 07:09:33 10° ENE 07:10:59 11° NE 07:12:26 10° NNE visible
